PIESAT-2 11

导读 | 豆包AI

PIESAT-2 11是中国航天宏图信息技术股份有限公司研制的主动雷达遥感卫星,隶属于宏图卫星系列。该星于2024年12月16日由长征二号丁运载火箭在太原卫星发射中心发射升空,采用一箭四星方式送入高度约530公里的太阳同步轨道,轨道倾角97.5°。它将与同批次组网卫星共同提升商业遥感观测能力,为行业应用提供高质量对地观测数据支撑。

基本信息
目录编号:
62335
目录名称:
PIESAT-2 11
国际标识:
2024-241C
轨道中心:
EARTH
卫星名称:
PIESAT-2 11
卫星全名:
PIESAT-2 11
卫星状态:
在轨 (已飞行525 天)
发射日期:
2024-12-16 UTC
国别 :
中国 (CN)
星等 :
--
轨道信息
数据来源 国际轨道数据
星历时间: 2026-05-24T12:41:34+0800
22小时前
查看轨道信息
半长轴: 6901.859km
偏心率: 0.0002383
轨道倾角: 97.527°
近地点辐角 85.482°
升交点赤经 92.004°
平近点角 274.668°
近地点: 522.077km
远地点: 525.367km
周期: 95.106分钟
每日圈数: 15.14097
详细信息
使用方式:
暂无
2D轨道图
3D轨道图
轨道高度分析图
轨道倾角分析图
轨道综合分析图
查看轨道综合分析图